User: anonymous   Login
Location: Vancouver
(49.2500°N, 123.1330°W)
Time: 21:42:49
(UTC-07:00)
Language:

BREEZE-M DEB (TANK) - Orbit

View from above orbital plane
View from above orbital plane
View from above satellite
View from above satellite

Ground track
Ground track

The orbit data is extracted from the following two-line orbital elements,

1 27821U 03024B   17227.92808087 +.00003134 +00000-0 +25732-3 0  9993
2 27821 049.5492 220.7505 4945204 075.3106 332.8834 05.76125728283890
Epoch (UTC): 15 August 2017 22:16:26
Eccentricity: 0.4945204
inclination: 49.5492°
perigee height: 266 km
apogee height: 13265 km
right ascension of ascending node: 220.7505°
argument of perigee: 75.3106°
revolutions per day: 5.76125728
mean anomaly at epoch: 332.8834°
orbit number at epoch: 28389

The dashed part of the orbit path shows where the satellite is in the earth's shadow,  

DLR